Ephrata, WA
on Thursday, January 31, 2013

Thursday
Previous Day Next Day
Daily Summary
 ActualAverageRecord
Temperature
Mean Temperature °F 31°F  
Max Temperature 39°F 38°F 61°F (1953)
Min Temperature 24°F 24°F -20°F (1950)
Degree Days
Heating Degree Days 33 34  
Month to date heating degree days 1181 1122  
Since 1 July heating degree days 3436 3708  
Cooling Degree Days 0 0  
Month to date cooling degree days 0 0  
Year to date cooling degree days 0 0  
Moisture
Dew Point 29°F   
Average Humidity 87    
Maximum Humidity 92    
Minimum Humidity 82    
Precipitation
Precipitation 0.01 in 0.02 in 0.46 in (1963)
Month to date precipitation 0.19 0.91  
Year to date precipitation 0.19 0.91  
Wind
Wind Speed 4 mph   
Max Wind Speed 10 mph   
Max Gust Speed 12 mph   
Visibility 10 miles   
Events Rain   

Key: T is trace of precipitation, MM is missing value
Source: NWS Daily Summary
Time(PST)TemperatureDew PointHumidity Pressure Visibility Wind DirectionWind SpeedGust SpeedPrecipitationEvents Conditions
12:53 AM 33.1°F 28.9°F 85% 30.26 in 10.0 miles North 4.6 mph - N/A   Overcast
1:53 AM 33.1°F 28.9°F 85% 30.27 in 10.0 miles North 5.8 mph - N/A   Overcast
2:53 AM 34.0°F 30.0°F 85% 30.27 in 10.0 miles Calm Calm - N/A   Overcast
3:53 AM 33.1°F 28.9°F 85% 30.27 in 10.0 miles North 5.8 mph - N/A   Scattered Clouds
4:53 AM 32.0°F 28.9°F 88% 30.28 in 10.0 miles NNE 3.5 mph - N/A   Clear
5:53 AM 32.0°F 28.9°F 88% 30.27 in 10.0 miles Variable 4.6 mph - N/A   Clear
6:53 AM 30.9°F 28.0°F 89% 30.26 in 10.0 miles North 3.5 mph - N/A   Clear
7:53 AM 32.0°F 28.9°F 88% 30.28 in 10.0 miles Variable 3.5 mph - N/A   Clear
8:53 AM 33.1°F 30.0°F 89% 30.29 in 10.0 miles NNE 3.5 mph - N/A   Clear
9:53 AM 33.1°F 30.0°F 89% 30.30 in 10.0 miles North 4.6 mph - N/A   Clear
10:53 AM 34.0°F 30.0°F 85% 30.30 in 10.0 miles North 4.6 mph - N/A   Mostly Cloudy
11:53 AM 35.1°F 30.9°F 85% 30.28 in 10.0 miles North 5.8 mph - N/A   Mostly Cloudy
12:53 PM 36.0°F 30.9°F 82% 30.26 in 10.0 miles North 9.2 mph - N/A   Mostly Cloudy
1:53 PM 36.0°F 30.9°F 82% 30.25 in 10.0 miles North 5.8 mph - N/A   Overcast
2:53 PM 36.0°F 33.1°F 89% 30.25 in 10.0 miles NNW 3.5 mph - 0.01 in Rain Light Rain
3:53 PM 37.9°F 34.0°F 86% 30.25 in 10.0 miles North 4.6 mph - 0.00 in   Partly Cloudy
4:53 PM 35.1°F 32.0°F 89% 30.23 in 10.0 miles North 8.1 mph - N/A   Partly Cloudy
5:53 PM 30.9°F 28.9°F 92% 30.22 in 10.0 miles Calm Calm - N/A   Clear
6:53 PM 32.0°F 28.9°F 88% 30.22 in 10.0 miles Calm Calm - N/A   Clear
7:53 PM 30.0°F 28.0°F 92% 30.22 in 10.0 miles NNW 3.5 mph - N/A   Clear
8:53 PM 28.0°F 26.1°F 92% 30.22 in 8.0 miles Calm Calm - N/A   Clear
10:53 PM 26.1°F 23.0°F 88% 30.23 in 8.0 miles North 4.6 mph - N/A   Clear
11:53 PM 26.1°F 24.1°F 92% 30.24 in 7.0 miles ENE 9.2 mph - N/A   Clear
Moon Phase
Jan. 31 Feb. 03 Feb. 10 Feb. 17 Feb. 25
Sunrise:07:24 AM (PST) Moon Rise:10:32 PM (PST)1/31
Sunset:04:59 PM (PST) Moon Set:09:03 AM (PST)1/31

Copyright © 2014 The Weather Underground, Inc.